星链-5067 (STARLINK-5067 )

导读

STARLINK-5067是美国太空探索技术公司(SpaceX)于2023年2月17日发射的一颗星链卫星,隶属于Starlink星座项目。星链计划旨在构建全球卫星互联网星座,为全球提供高速低延迟互联网服务。该卫星入轨后,进一步扩充了星链星座的规模,提升星座覆盖能力与服务容量,助力星链网络全球服务部署推进。

基本信息
目录编号:
55653
目录名称:
STARLINK-5067
国际标识:
2023-021AB
轨道中心:
EARTH
卫星名称:
星链-5067
卫星全名:
星链-5067 (STARLINK-5067 )
卫星状态:
在轨 (已飞行1305 天)
发射日期:
2023-02-17 UTC
国别 :
美国 (US)
星等 :
--
该卫星已列入 空间交会检测服务 Space Conjunction Data Service (SCDS) ,当前飞行风险评估等级: 无高风险
轨道信息
数据来源 国际轨道数据 AOE轨道数据
星历时间 2026-09-14T01:45:40+0800
22小时前
查看轨道信息
2026-09-11T11:00:00+0800
3天前
查看轨道信息
半长轴 6950.189km 6950.182km
偏心率 0.0002008 0.0003034
轨道倾角 69.999° 70.000°
近地点辐角 263.836° 253.555°
升交点赤经 70.146° 76.749°
平近点角 96.257° 45.016°
近地点 570.656km 569.936km
远地点 573.448km 574.154km
周期 96.107分钟 96.107分钟
每日圈数 14.983313 14.983338
详细信息
固有亮度:
5
最大亮度:
2.5
卫星平台:
Starlink v1.5
覆盖范围:
全球
运营商:
太空探索技术公司
运营商所在国:
美国
制造商(研发单位):
太空探索技术公司
制造商所在国:
美国
使用方式:
暂无
卫星简介
星链(Starlink)计划是由太空探索技术公司(SpaceX)提出的一个巨型低轨卫星互联网星座项目,计划在2019年至2024年间在太空搭建由约1.2万颗卫星组成的“星链”网络,其中1584颗将部署在地球上空550千米处的近地轨道,并从2020年开始工作。该卫星仍在工作。
2D轨道图
3D轨道图
轨道高度分析图
轨道倾角分析图
轨道综合分析图
查看轨道综合分析图
与全量物体交会距离演化趋势 订阅飞行安全评估服务
与全量物体交会风险概率演化趋势 订阅飞行安全评估服务